Location: Reading
(51.4439°N, 0.9841°W)
Time: 05:45:46
(UTC+01:00)

ISS - Visible Passes

Search period start: 21 September 2018 00:00
Search period end: 01 October 2018 00:00
Orbit: 403 x 408 km, 51.6° (Epoch: 21 September)

Date Brightness Start Highest point End Pass type
(mag) Time Alt. Az. Time Alt. Az. Time Alt. Az.
22 Sep -1.5 21:00:49 10° SSW 21:01:34 15° SSW 21:01:34 15° SSW visible
23 Sep -2.1 20:09:41 10° S 20:11:58 18° SE 20:12:20 17° SE visible
23 Sep -0.9 21:44:46 10° WSW 21:45:03 12° WSW 21:45:03 12° WSW visible
24 Sep -3.0 20:53:03 10° SW 20:55:36 38° S 20:55:36 38° S visible
25 Sep -2.8 20:01:30 10° SSW 20:04:27 30° SSE 20:06:01 20° ESE visible
25 Sep -1.5 21:37:25 10° WSW 21:38:41 21° WSW 21:38:41 21° WSW visible
26 Sep -3.9 20:45:34 10° WSW 20:48:50 68° SSE 20:48:59 67° SE visible
27 Sep -3.5 19:53:47 10° SW 19:56:59 50° SSE 19:59:10 18° E visible
27 Sep -1.9 21:30:07 10° W 21:31:50 28° W 21:31:50 28° W visible
28 Sep -3.9 20:38:10 10° W 20:41:29 88° S 20:41:57 64° E visible
29 Sep -3.8 19:46:16 10° WSW 19:49:34 75° SSE 19:52:00 17° E visible
29 Sep -2.0 21:22:46 10° W 21:24:40 32° W 21:24:40 32° W visible
30 Sep -3.9 20:30:48 10° W 20:34:08 84° N 20:34:41 58° E visible
30 Sep -0.3 22:07:20 10° W 22:07:21 10° W 22:07:21 10° W visible
